Weather History for Cape Girardeau, MO

Change the Weather History Date:

Sunday, April 28, 2013

  Actual Average Record
Temperature  
Mean Temperature 56 °F 61 °F  
Max Temperature 62 °F 73 °F 87 °F (1989)
Min Temperature 50 °F 50 °F 35 °F (1988)
Degree Days  
Heating Degree Days 9 5  
Month to date heating degree days 299 254  
Since 1 July heating degree days 4260 4310  
Cooling Degree Days 0 1  
Month to date cooling degree days 24 22  
Year to date cooling degree days 24 26  
Growing Degree Days 6 (Base 50)    
Moisture  
Dew Point 52 °F    
Average Humidity 84    
Maximum Humidity 100    
Minimum Humidity 67    
Precipitation  
Precipitation 0.00 in 0.16 in 1.56 in (1996)
Month to date precipitation 3.65 4.03  
Year to date precipitation 12.82 15.31  
Sea Level Pressure  
Sea Level Pressure 29.94 in    
Wind  
Wind Speed 5 mph (WSW)    
Max Wind Speed 10 mph    
Max Gust Speed 13 mph    
Visibility 10 miles    
Events      
T = Trace of Precipitation, MM = Missing Value Source: NWS Daily Summary

Daily Weather History Graph

Daily Weather History Graph

Search for Another Location

Airport:

Trip Planner

Search our weather history database for the weather conditions in past years. The results will help you decide how hot, cold, wet, or windy it might be!

Date:

Astronomy

Apr. 28, 2013 Rise Set
Actual Time 6:06 AM CDT 7:45 PM CDT
Civil Twilight 5:38 AM CDT 8:13 PM CDT
Nautical Twilight 5:05 AM CDT 8:46 PM CDT
Astronomical Twilight 4:30 AM CDT 9:22 PM CDT
Moon 11:13 PM CDT (4/28) 8:25 AM CDT (4/28)
Length of Visible Light 14h 34m
Length of Day
13h 38m
Waning Gibbous, 88% of the Moon is Illuminated
Apr 28
Waning Gibbous
May 2
Last Quarter
May 9
New
May 17
First Quarter
May 24
Full

Hourly Weather History & Observations

Time (CDT) Temp. Dew Point Humidity Pressure Visibility Wind Dir Wind Speed Gust Speed Precip Events Conditions
12:53 AM 54.0 °F 53.1 °F 97% 29.92 in 10.0 mi WNW 4.6 mph - N/A   Overcast
1:14 AM 53.6 °F 53.6 °F 100% 29.92 in 10.0 mi West 3.5 mph - N/A   Overcast
1:40 AM 53.6 °F 51.8 °F 94% 29.92 in 10.0 mi West 5.8 mph - N/A   Mostly Cloudy
1:53 AM 54.0 °F 52.0 °F 93% 29.92 in 10.0 mi West 5.8 mph - N/A   Overcast
2:34 AM 53.6 °F 51.8 °F 94% 29.91 in 10.0 mi West 9.2 mph - N/A   Overcast
2:53 AM 54.0 °F 52.0 °F 93% 29.91 in 10.0 mi West 6.9 mph - N/A   Overcast
3:18 AM 53.6 °F 51.8 °F 94% 29.91 in 10.0 mi West 8.1 mph - N/A   Overcast
3:53 AM 52.0 °F 50.0 °F 93% 29.91 in 10.0 mi WSW 5.8 mph - N/A   Overcast
4:26 AM 51.8 °F 48.2 °F 88% 29.90 in 10.0 mi WSW 6.9 mph - N/A   Scattered Clouds
4:53 AM 52.0 °F 50.0 °F 93% 29.91 in 10.0 mi WSW 6.9 mph - N/A   Partly Cloudy
5:06 AM 51.8 °F 50.0 °F 94% 29.91 in 10.0 mi West 5.8 mph - N/A   Mostly Cloudy
5:53 AM 52.0 °F 50.0 °F 93% 29.92 in 10.0 mi Calm Calm - N/A   Overcast
6:53 AM 53.1 °F 51.1 °F 93% 29.94 in 10.0 mi Calm Calm - N/A   Overcast
7:53 AM 54.0 °F 52.0 °F 93% 29.95 in 10.0 mi West 6.9 mph - N/A   Overcast
8:53 AM 55.0 °F 52.0 °F 89% 29.96 in 10.0 mi WSW 6.9 mph - N/A   Overcast
9:45 AM 55.4 °F 51.8 °F 88% 29.96 in 10.0 mi WSW 6.9 mph - N/A   Overcast
9:53 AM 55.0 °F 52.0 °F 89% 29.96 in 10.0 mi WSW 6.9 mph - N/A   Overcast
10:21 AM 55.4 °F 51.8 °F 88% 29.96 in 10.0 mi WSW 6.9 mph - N/A   Overcast
10:53 AM 55.9 °F 52.0 °F 87% 29.97 in 10.0 mi West 9.2 mph - N/A   Overcast
11:53 AM 57.0 °F 52.0 °F 83% 29.97 in 10.0 mi West 9.2 mph - N/A   Overcast
12:53 PM 59.0 °F 52.0 °F 78% 29.96 in 10.0 mi NW 6.9 mph - N/A   Overcast
1:53 PM 60.1 °F 52.0 °F 75% 29.97 in 10.0 mi NNW 10.4 mph - N/A   Overcast
2:53 PM 61.0 °F 52.0 °F 72% 29.95 in 10.0 mi NNW 3.5 mph - N/A   Overcast
3:53 PM 61.0 °F 52.0 °F 72% 29.94 in 10.0 mi Calm Calm - N/A   Overcast
4:53 PM 62.1 °F 52.0 °F 70% 29.93 in 10.0 mi Calm Calm - N/A   Overcast
5:53 PM 61.0 °F 52.0 °F 72% 29.94 in 10.0 mi Calm Calm - N/A   Overcast
6:53 PM 60.1 °F 54.0 °F 80% 29.94 in 10.0 mi South 6.9 mph - N/A   Overcast
7:53 PM 57.9 °F 53.1 °F 84% 29.93 in 10.0 mi South 5.8 mph - N/A   Scattered Clouds
8:53 PM 55.0 °F 52.0 °F 89% 29.94 in 10.0 mi SSE 5.8 mph - N/A   Overcast
9:53 PM 57.0 °F 53.1 °F 87% 29.96 in 10.0 mi SSE 3.5 mph - N/A   Overcast
10:53 PM 57.9 °F 53.1 °F 84% 29.96 in 10.0 mi Calm Calm - N/A   Overcast
11:53 PM 55.9 °F 52.0 °F 87% 29.94 in 10.0 mi SW 3.5 mph - N/A   Mostly Cloudy